VLG2LK LEBL-LFLL

Flight info

Callsign VLG2LK
Flight time 1h 5m
Altitude 30000
Route DALIN DCT PIVUS DCT DIBER DCT SOSUR DCT SOFFY DCT MRM DCT MTL
Aircraft A320/M-SDE3FGHIRWY/LB1

Departure

Time 2026-04-28 17:58
Airport Josep Tarradellas Barcelona-El Prat Airport (LEBL)

Arrival

Time 2026-04-28 19:04
Airport Lyon Saint-Exupéry Airport (LFLL)
Time Latitude Longitude Altitude Speed Heading
2026-04-28 17:43 41.28775 2.07751 16 ft 0 kts 277°
2026-04-28 17:47 41.28774 2.07756 16 ft 3 kts 277°
2026-04-28 17:47 41.28772 2.07779 16 ft 2 kts 277°
2026-04-28 17:47 41.28771 2.07794 16 ft 3 kts 277°
2026-04-28 17:48 41.28768 2.07825 16 ft 2 kts 277°
2026-04-28 17:48 41.28766 2.07847 16 ft 2 kts 277°
2026-04-28 17:48 41.28764 2.07870 17 ft 2 kts 277°
2026-04-28 17:48 41.28763 2.07883 17 ft 0 kts 279°
2026-04-28 17:49 41.28760 2.07897 18 ft 3 kts 301°
2026-04-28 17:49 41.28749 2.07915 18 ft 2 kts 330°
2026-04-28 17:49 41.28755 2.07911 21 ft 2 kts 332°
2026-04-28 17:50 41.28770 2.07900 17 ft 3 kts 333°
2026-04-28 17:50 41.28779 2.07894 19 ft 1 kts 333°
2026-04-28 17:50 41.28782 2.07892 19 ft 0 kts 333°
2026-04-28 17:50 41.28784 2.07891 18 ft 1 kts 333°
2026-04-28 17:51 41.28800 2.07880 17 ft 4 kts 333°
2026-04-28 17:51 41.28842 2.07857 16 ft 9 kts 349°
2026-04-28 17:51 41.28900 2.07918 17 ft 14 kts 64°
2026-04-28 17:51 41.28873 2.08017 17 ft 14 kts 159°
2026-04-28 17:52 41.28768 2.08080 16 ft 18 kts 154°
2026-04-28 17:52 41.28730 2.08215 18 ft 8 kts 114°
2026-04-28 17:52 41.28707 2.08246 20 ft 4 kts 127°
2026-04-28 17:53 41.28717 2.08326 23 ft 11 kts 72°
2026-04-28 17:53 41.28753 2.08423 23 ft 13 kts 61°
2026-04-28 17:53 41.28800 2.08546 20 ft 17 kts 69°
2026-04-28 17:53 41.28854 2.08699 20 ft 19 kts 64°
2026-04-28 17:54 41.28915 2.08877 16 ft 23 kts 66°
2026-04-28 17:54 41.28981 2.09079 18 ft 24 kts 67°
2026-04-28 17:54 41.29055 2.09289 19 ft 26 kts 64°
2026-04-28 17:54 41.29131 2.09507 19 ft 27 kts 68°
2026-04-28 17:55 41.29207 2.09739 18 ft 16 kts 65°
2026-04-28 17:55 41.29249 2.09864 18 ft 11 kts 66°
2026-04-28 17:55 41.29278 2.09966 16 ft 9 kts 79°
2026-04-28 17:55 41.29270 2.10039 14 ft 9 kts 111°
2026-04-28 17:56 41.29242 2.10131 16 ft 15 kts 110°
2026-04-28 17:56 41.29169 2.10166 13 ft 16 kts 225°
2026-04-28 17:56 41.29157 2.10133 13 ft 2 kts 248°
2026-04-28 17:56 41.29152 2.10118 13 ft 0 kts 246°
2026-04-28 17:57 41.29150 2.10112 13 ft 0 kts 245°
2026-04-28 17:57 41.29146 2.10101 15 ft 6 kts 245°
2026-04-28 17:58 41.29036 2.09777 17 ft 72 kts 246°
2026-04-28 17:58 41.28743 2.08922 21 ft 128 kts 245°
2026-04-28 17:58 41.28322 2.07689 160 ft 154 kts 245°
2026-04-28 17:58 41.27740 2.06520 698 ft 154 kts 212°
2026-04-28 17:59 41.26711 2.06157 1208 ft 157 kts 185°
2026-04-28 17:59 41.25553 2.06104 1515 ft 178 kts 182°
2026-04-28 17:59 41.24242 2.06075 1751 ft 200 kts 182°
2026-04-28 17:59 41.22785 2.06017 2099 ft 217 kts 183°
2026-04-28 18:00 41.21269 2.05930 2797 ft 219 kts 184°
2026-04-28 18:00 41.19745 2.05820 3547 ft 220 kts 184°
2026-04-28 18:00 41.18208 2.05691 4273 ft 223 kts 185°
2026-04-28 18:00 41.16640 2.05567 4880 ft 233 kts 183°
2026-04-28 18:01 41.14983 2.05490 5496 ft 242 kts 182°
2026-04-28 18:01 41.13287 2.05428 6253 ft 245 kts 182°
2026-04-28 18:01 41.11575 2.05429 6843 ft 259 kts 172°
2026-04-28 18:01 41.09856 2.06332 7283 ft 277 kts 142°
2026-04-28 18:02 41.08652 2.08334 7964 ft 284 kts 112°
2026-04-28 18:02 41.08373 2.10910 8684 ft 288 kts 81°
2026-04-28 18:02 41.09123 2.13349 9403 ft 290 kts 55°
2026-04-28 18:02 41.10282 2.15550 10138 ft 293 kts 54°
2026-04-28 18:03 41.11500 2.17800 10505 ft 311 kts 53°
2026-04-28 18:03 41.12811 2.20216 10656 ft 334 kts 54°
2026-04-28 18:03 41.14205 2.22799 10884 ft 352 kts 54°
2026-04-28 18:03 41.15642 2.25470 11437 ft 358 kts 54°
2026-04-28 18:04 41.17092 2.28179 12052 ft 362 kts 54°
2026-04-28 18:04 41.18551 2.30923 12668 ft 365 kts 54°
2026-04-28 18:04 41.20018 2.33694 13288 ft 368 kts 54°
2026-04-28 18:04 41.21494 2.36490 13903 ft 372 kts 54°
2026-04-28 18:05 41.22985 2.39315 14496 ft 375 kts 54°
2026-04-28 18:05 41.23982 2.41196 14881 ft 377 kts 54°
2026-04-28 18:05 41.26016 2.45026 15630 ft 381 kts 54°
2026-04-28 18:05 41.27548 2.47914 16163 ft 384 kts 54°
2026-04-28 18:06 41.29094 2.50831 16716 ft 387 kts 54°
2026-04-28 18:06 41.30652 2.53770 17260 ft 390 kts 54°
2026-04-28 18:06 41.32218 2.56732 17804 ft 394 kts 54°
2026-04-28 18:06 41.33798 2.59728 18342 ft 397 kts 54°
2026-04-28 18:07 41.35387 2.62749 18835 ft 400 kts 54°
2026-04-28 18:07 41.36981 2.65787 18983 ft 401 kts 54°
2026-04-28 18:07 41.38576 2.68826 19008 ft 401 kts 54°
2026-04-28 18:07 41.40172 2.71864 19009 ft 400 kts 54°
2026-04-28 18:08 41.41770 2.74903 19009 ft 400 kts 54°
2026-04-28 18:08 41.43349 2.77903 19009 ft 400 kts 54°
2026-04-28 18:08 41.44944 2.80943 19009 ft 400 kts 54°
2026-04-28 18:08 41.46536 2.83987 19009 ft 400 kts 55°
2026-04-28 18:09 41.48126 2.87036 19009 ft 400 kts 55°
2026-04-28 18:09 41.49713 2.90085 19008 ft 400 kts 55°
2026-04-28 18:09 41.51300 2.93134 19008 ft 400 kts 55°
2026-04-28 18:09 41.52890 2.96188 19009 ft 400 kts 55°
2026-04-28 18:10 41.54477 2.99239 19009 ft 400 kts 55°
2026-04-28 18:10 41.55649 3.01490 19010 ft 400 kts 55°
2026-04-28 18:10 41.57141 3.04357 19009 ft 400 kts 55°
2026-04-28 18:10 41.58729 3.07412 19009 ft 400 kts 55°
2026-04-28 18:11 41.60317 3.10468 19009 ft 400 kts 55°
2026-04-28 18:11 41.61903 3.13524 19009 ft 400 kts 55°
2026-04-28 18:11 41.63483 3.16581 19009 ft 400 kts 55°
2026-04-28 18:11 41.65064 3.19644 19009 ft 400 kts 55°
2026-04-28 18:12 41.66645 3.22711 19009 ft 400 kts 55°
2026-04-28 18:12 41.68225 3.25770 19009 ft 400 kts 55°
2026-04-28 18:12 41.69809 3.28834 19009 ft 400 kts 55°
2026-04-28 18:12 41.71391 3.31905 19194 ft 403 kts 55°
2026-04-28 18:13 41.72968 3.35019 19789 ft 405 kts 58°
2026-04-28 18:13 41.74258 3.38388 20329 ft 409 kts 66°
2026-04-28 18:13 41.75410 3.41882 20831 ft 411 kts 66°
2026-04-28 18:13 41.76573 3.45397 21303 ft 414 kts 66°
2026-04-28 18:14 41.77731 3.48885 21743 ft 417 kts 66°
2026-04-28 18:14 41.78918 3.52448 22172 ft 420 kts 65°
2026-04-28 18:14 41.80112 3.56029 22593 ft 422 kts 65°
2026-04-28 18:14 41.81313 3.59634 23002 ft 425 kts 66°
2026-04-28 18:15 41.82517 3.63266 23400 ft 427 kts 66°
2026-04-28 18:15 41.83722 3.66922 23781 ft 430 kts 66°
2026-04-28 18:15 41.84929 3.70596 24157 ft 432 kts 66°
2026-04-28 18:15 41.86145 3.74300 24520 ft 435 kts 66°
2026-04-28 18:16 41.87364 3.78017 24872 ft 437 kts 66°
2026-04-28 18:16 41.88590 3.81762 25210 ft 439 kts 66°
2026-04-28 18:16 41.89821 3.85523 25551 ft 441 kts 66°
2026-04-28 18:16 41.91060 3.89300 25875 ft 444 kts 66°
2026-04-28 18:17 41.92304 3.93101 26205 ft 446 kts 66°
2026-04-28 18:17 41.93555 3.96924 26532 ft 448 kts 66°
2026-04-28 18:17 41.94808 4.00761 26850 ft 450 kts 66°
2026-04-28 18:17 41.96066 4.04619 27161 ft 452 kts 66°
2026-04-28 18:18 41.97330 4.08502 27459 ft 454 kts 66°
2026-04-28 18:18 41.98594 4.12396 27799 ft 455 kts 66°
2026-04-28 18:18 41.99859 4.16295 28231 ft 454 kts 66°
2026-04-28 18:18 42.00692 4.18868 28503 ft 453 kts 66°
2026-04-28 18:19 42.02368 4.24064 29066 ft 452 kts 66°
2026-04-28 18:19 42.03616 4.27941 29466 ft 451 kts 66°
2026-04-28 18:19 42.04859 4.31811 29860 ft 451 kts 66°
2026-04-28 18:19 42.06104 4.35691 29986 ft 451 kts 66°
2026-04-28 18:20 42.09355 4.42848 30002 ft 449 kts 49°
2026-04-28 18:20 42.13899 4.48596 30021 ft 449 kts 41°
2026-04-28 18:21 42.18534 4.54158 30012 ft 449 kts 41°
2026-04-28 18:21 42.23185 4.59783 30010 ft 449 kts 41°
2026-04-28 18:22 42.27837 4.65418 30010 ft 449 kts 41°
2026-04-28 18:22 42.32520 4.71088 30003 ft 449 kts 41°
2026-04-28 18:23 42.37139 4.76689 30003 ft 449 kts 41°
2026-04-28 18:23 42.41789 4.82340 30009 ft 449 kts 41°
2026-04-28 18:24 42.45680 4.87085 30013 ft 449 kts 41°
2026-04-28 18:24 42.51069 4.93682 30015 ft 449 kts 41°
2026-04-28 18:25 42.55972 4.98898 30006 ft 448 kts 29°
2026-04-28 18:26 42.64734 5.03189 30014 ft 447 kts 15°
2026-04-28 18:26 42.67671 5.04345 30014 ft 431 kts 15°
2026-04-28 18:26 42.70497 5.05460 30011 ft 416 kts 15°
2026-04-28 18:27 42.75992 5.07638 30004 ft 409 kts 15°
2026-04-28 18:27 42.81442 5.09812 30004 ft 408 kts 16°
2026-04-28 18:28 42.86884 5.11988 30004 ft 408 kts 15°
2026-04-28 18:28 42.92332 5.14159 30004 ft 408 kts 15°
2026-04-28 18:29 42.97777 5.16338 30014 ft 408 kts 16°
2026-04-28 18:29 43.03222 5.18523 30012 ft 408 kts 16°
2026-04-28 18:30 43.08662 5.20731 30004 ft 408 kts 16°
2026-04-28 18:30 43.14097 5.22952 30017 ft 408 kts 16°
2026-04-28 18:31 43.19534 5.25183 30004 ft 408 kts 16°
2026-04-28 18:31 43.24972 5.27412 30004 ft 408 kts 16°
2026-04-28 18:32 43.30408 5.29640 30004 ft 408 kts 16°
2026-04-28 18:32 43.35930 5.31319 30011 ft 407 kts
2026-04-28 18:33 43.41517 5.30799 30005 ft 406 kts 346°
2026-04-28 18:33 43.46905 5.28487 30006 ft 406 kts 341°
2026-04-28 18:34 43.52274 5.26028 30010 ft 406 kts 341°
2026-04-28 18:34 43.57636 5.23572 30015 ft 406 kts 341°
2026-04-28 18:35 43.63002 5.21108 30009 ft 406 kts 341°
2026-04-28 18:35 43.68368 5.18647 30008 ft 407 kts 341°
2026-04-28 18:36 43.73737 5.16181 30006 ft 406 kts 341°
2026-04-28 18:36 43.79100 5.13710 30012 ft 407 kts 341°
2026-04-28 18:37 43.84477 5.11228 30007 ft 408 kts 341°
2026-04-28 18:37 43.89848 5.08736 30001 ft 406 kts 341°
2026-04-28 18:38 43.95204 5.06255 30013 ft 406 kts 341°
2026-04-28 18:38 44.00563 5.03770 30007 ft 406 kts 341°
2026-04-28 18:39 44.05918 5.01284 30011 ft 406 kts 341°
2026-04-28 18:39 44.11236 4.98811 30007 ft 406 kts 341°
2026-04-28 18:40 44.16589 4.96310 30009 ft 406 kts 341°
2026-04-28 18:40 44.21946 4.93810 30013 ft 406 kts 341°
2026-04-28 18:41 44.27299 4.91292 30005 ft 406 kts 341°
2026-04-28 18:41 44.32653 4.88771 30012 ft 406 kts 341°
2026-04-28 18:42 44.38007 4.86249 30013 ft 406 kts 341°
2026-04-28 18:42 44.42461 4.84154 30010 ft 406 kts 341°
2026-04-28 18:43 44.47825 4.81627 30014 ft 407 kts 341°
2026-04-28 18:43 44.53187 4.79091 30011 ft 407 kts 341°
2026-04-28 18:44 44.58541 4.76555 30010 ft 406 kts 341°
2026-04-28 18:44 44.66563 4.72761 29337 ft 406 kts 342°
2026-04-28 18:45 44.69317 4.72025 28498 ft 403 kts 358°
2026-04-28 18:45 44.72102 4.72395 27548 ft 403 kts 10°
2026-04-28 18:45 44.74858 4.73112 26594 ft 403 kts 10°
2026-04-28 18:45 44.77608 4.73836 25638 ft 402 kts 10°
2026-04-28 18:46 44.80356 4.74564 24688 ft 401 kts 10°
2026-04-28 18:46 44.83095 4.75290 23741 ft 400 kts 10°
2026-04-28 18:46 44.85823 4.76011 22781 ft 398 kts 10°
2026-04-28 18:46 44.88543 4.76724 21827 ft 397 kts 10°
2026-04-28 18:47 44.91254 4.77432 20872 ft 395 kts 10°
2026-04-28 18:47 44.93945 4.78135 19918 ft 392 kts 10°
2026-04-28 18:47 44.96617 4.78838 18964 ft 389 kts 10°
2026-04-28 18:47 44.99268 4.79537 18003 ft 385 kts 10°
2026-04-28 18:48 45.01852 4.80220 17071 ft 381 kts 10°
2026-04-28 18:48 45.04444 4.80903 16118 ft 376 kts 10°
2026-04-28 18:48 45.07003 4.81579 15088 ft 372 kts
2026-04-28 18:48 45.09538 4.82251 14129 ft 370 kts
2026-04-28 18:49 45.12056 4.82919 13110 ft 367 kts
2026-04-28 18:49 45.13749 4.83369 12406 ft 365 kts
2026-04-28 18:49 45.17039 4.84251 11085 ft 361 kts 11°
2026-04-28 18:49 45.19472 4.85030 10101 ft 356 kts
2026-04-28 18:50 45.21922 4.84992 9077 ft 350 kts 354°
2026-04-28 18:50 45.24335 4.84667 8057 ft 346 kts 353°
2026-04-28 18:50 45.26716 4.84314 7069 ft 343 kts 353°
2026-04-28 18:50 45.29084 4.83949 6081 ft 345 kts 353°
2026-04-28 18:51 45.31504 4.83558 5080 ft 354 kts 353°
2026-04-28 18:51 45.33963 4.83117 4369 ft 354 kts 353°
2026-04-28 18:51 45.36355 4.82668 4148 ft 338 kts 353°
2026-04-28 18:51 45.38635 4.82234 4001 ft 323 kts 353°
2026-04-28 18:52 45.40798 4.81816 4003 ft 304 kts 353°
2026-04-28 18:52 45.42835 4.81419 4006 ft 287 kts 353°
2026-04-28 18:52 45.44760 4.81041 4006 ft 271 kts 353°
2026-04-28 18:52 45.46581 4.80682 4005 ft 257 kts 353°
2026-04-28 18:53 45.48303 4.80343 4005 ft 243 kts 353°
2026-04-28 18:53 45.49925 4.80022 4005 ft 228 kts 353°
2026-04-28 18:53 45.51441 4.79719 4003 ft 212 kts 353°
2026-04-28 18:53 45.52909 4.79425 4015 ft 228 kts 353°
2026-04-28 18:54 45.54604 4.79087 4011 ft 253 kts 353°
2026-04-28 18:54 45.56299 4.78748 4006 ft 239 kts 353°
2026-04-28 18:54 45.57917 4.78427 4008 ft 233 kts 353°
2026-04-28 18:54 45.59521 4.78109 4010 ft 233 kts 353°
2026-04-28 18:55 45.61099 4.77797 4010 ft 232 kts 353°
2026-04-28 18:55 45.62698 4.77482 4011 ft 232 kts 353°
2026-04-28 18:55 45.64303 4.77165 4009 ft 233 kts 353°
2026-04-28 18:55 45.65902 4.76850 4007 ft 232 kts 352°
2026-04-28 18:56 45.67501 4.76536 4007 ft 232 kts 353°
2026-04-28 18:56 45.69102 4.76223 4010 ft 232 kts 353°
2026-04-28 18:56 45.70701 4.75912 4008 ft 232 kts 353°
2026-04-28 18:56 45.72303 4.75666 3989 ft 230 kts
2026-04-28 18:57 45.73820 4.76199 3810 ft 222 kts 29°
2026-04-28 18:57 45.74956 4.77591 3681 ft 212 kts 55°
2026-04-28 18:57 45.75614 4.79410 3558 ft 201 kts 65°
2026-04-28 18:57 45.76186 4.81196 3409 ft 194 kts 67°
2026-04-28 18:58 45.76459 4.83060 3173 ft 192 kts 86°
2026-04-28 18:58 45.76487 4.84969 3035 ft 193 kts 89°
2026-04-28 18:58 45.76476 4.86894 3007 ft 193 kts 90°
2026-04-28 18:58 45.76460 4.88820 3010 ft 194 kts 90°
2026-04-28 18:59 45.76442 4.90756 3007 ft 194 kts 90°
2026-04-28 18:59 45.76544 4.92649 2998 ft 184 kts 72°
2026-04-28 18:59 45.76969 4.94286 3041 ft 169 kts 66°
2026-04-28 18:59 45.77418 4.95734 3026 ft 153 kts 65°
2026-04-28 19:00 45.77851 4.97101 3012 ft 149 kts 65°
2026-04-28 19:00 45.78279 4.98446 3014 ft 148 kts 64°
2026-04-28 19:00 45.78703 4.99785 3007 ft 147 kts 65°
2026-04-28 19:00 45.79128 5.01123 3013 ft 147 kts 65°
2026-04-28 19:01 45.79541 5.02430 2794 ft 142 kts 65°
2026-04-28 19:01 45.79926 5.03737 2402 ft 141 kts 72°
2026-04-28 19:01 45.80035 5.05115 2088 ft 140 kts 92°
2026-04-28 19:01 45.79687 5.06468 1744 ft 149 kts 124°
2026-04-28 19:02 45.79037 5.07620 1473 ft 149 kts 135°
2026-04-28 19:02 45.78151 5.08332 1479 ft 147 kts 159°
2026-04-28 19:02 45.77163 5.08678 1491 ft 147 kts 169°
2026-04-28 19:02 45.76150 5.08861 1372 ft 147 kts 173°
2026-04-28 19:03 45.75133 5.08968 1096 ft 147 kts 175°
2026-04-28 19:03 45.74120 5.09113 951 ft 147 kts 173°
2026-04-28 19:03 45.73123 5.09234 805 ft 139 kts 174°
2026-04-28 19:03 45.72352 5.09324 809 ft 71 kts 175°
2026-04-28 19:04 45.71959 5.09373 813 ft 51 kts 177°
2026-04-28 19:04 45.71709 5.09295 813 ft 18 kts 205°
2026-04-28 19:04 45.71644 5.09229 818 ft 11 kts 248°
2026-04-28 19:04 45.71629 5.09066 814 ft 24 kts 265°
2026-04-28 19:05 45.71613 5.08816 813 ft 20 kts 264°
2026-04-28 19:05 45.71597 5.08579 815 ft 22 kts 262°
2026-04-28 19:05 45.71624 5.08505 814 ft 15 kts 339°
2026-04-28 19:05 45.71686 5.08368 813 ft 20 kts 261°
2026-04-28 19:06 45.71692 5.08167 813 ft 21 kts 295°
2026-04-28 19:06 45.71768 5.08139 812 ft 20 kts 22°
2026-04-28 19:06 45.71902 5.08152 810 ft 9 kts 263°
2026-04-28 19:06 45.71902 5.08067 810 ft 1 kts 270°
2026-04-28 19:07 45.71902 5.08065 810 ft 0 kts 270°